Springfield, OH

7:43 AM EST on February 24, 2017 (GMT -0500)
Springfield-Beckley Municipal

Weather History for KSGH - September, 2012

Change the Weather History Date:

Wednesday, September 19, 2012

  Actual Average (KFFO) Record (KFFO)
Temperature  
Mean Temperature 50 °F -  
Max Temperature 63 °F 73 °F 86 °F (1997)
Min Temperature 36 °F 50 °F 39 °F (2012)
Degree Days  
Heating Degree Days 16    
Moisture  
Dew Point 35 °F    
Average Humidity 59    
Maximum Humidity 93    
Minimum Humidity 28    
Precipitation  
Precipitation 0.00 in - - ()
Sea Level Pressure  
Sea Level Pressure 30.13 in    
Wind  
Wind Speed 4 mph (SW)    
Max Wind Speed 10 mph    
Max Gust Speed -    
Visibility 9 miles    
Events      
Averages and records for this station are not official NWS values.
T = Trace of Precipitation, MM = Missing Value Source: NWS Daily Summary

Daily Weather History Graph

Daily Weather History Graph

Search for Another Location

Airport or City:

Trip Planner

Search our weather history database for the weather conditions in past years. The results will help you decide how hot, cold, wet, or windy it might be!

Date:

Astronomy

Sep. 19, 2012 Rise Set
Actual Time 7:20 AM EDT 7:36 PM EDT
Civil Twilight 6:53 AM EDT 8:03 PM EDT
Nautical Twilight 6:21 AM EDT 8:35 PM EDT
Astronomical Twilight 5:49 AM EDT 9:07 PM EDT
Moon 11:29 AM EDT (9/19) 9:45 PM EDT (9/19)
Length of Visible Light 13h 09m
Length of Day
12h 16m
Waxing Crescent, 17% of the Moon is Illuminated
Sep 19
Waxing Crescent
Sep 22
First Quarter
Sep 29
Full
Oct 8
Last Quarter
Oct 15
New

Hourly Weather History & Observations

Time (EDT) Temp. Windchill Dew Point Humidity Pressure Visibility Wind Dir Wind Speed Gust Speed Precip Events Conditions
12:56 AM 43.9 °F 42.3 °F 37.9 °F 80% 30.06 in 10.0 mi West 3.5 mph - N/A   Clear
1:56 AM 39.9 °F - 36.9 °F 89% 30.08 in 10.0 mi Calm Calm - N/A   Clear
2:56 AM 41.0 °F 39.0 °F 37.9 °F 89% 30.08 in 10.0 mi WNW 3.5 mph - N/A   Clear
3:56 AM 37.9 °F 35.5 °F 34.9 °F 89% 30.08 in 10.0 mi WSW 3.5 mph - N/A   Clear
4:56 AM 38.8 °F 36.5 °F 36.9 °F 93% 30.09 in 10.0 mi West 3.5 mph - N/A   Clear
5:56 AM 37.9 °F - 36.0 °F 93% 30.12 in 10.0 mi Calm Calm - N/A   Clear
6:56 AM 36.9 °F - 34.9 °F 93% 30.15 in 10.0 mi Calm Calm - N/A   Clear
7:56 AM 37.9 °F - 36.0 °F 93% 30.17 in 8.0 mi Calm Calm - N/A   Clear
8:56 AM 45.9 °F 42.9 °F 38.8 °F 76% 30.18 in 8.0 mi SW 5.8 mph - N/A   Clear
9:56 AM 52.0 °F - 38.8 °F 61% 30.19 in 8.0 mi WSW 5.8 mph - N/A   Clear
10:56 AM 55.9 °F - 36.0 °F 47% 30.20 in 9.0 mi WSW 5.8 mph - N/A   Clear
11:56 AM 59.9 °F - 32.0 °F 35% 30.19 in 9.0 mi WSW 10.4 mph - N/A   Clear
12:56 PM 61.9 °F - 32.0 °F 33% 30.19 in 9.0 mi SSW 6.9 mph - N/A   Clear
1:56 PM 61.9 °F - 31.1 °F 31% 30.18 in 9.0 mi Variable 3.5 mph - N/A   Clear
2:56 PM 63.0 °F - 30.0 °F 29% 30.16 in 10.0 mi NW 5.8 mph - N/A   Clear
3:56 PM 63.9 °F - 30.0 °F 28% 30.14 in 9.0 mi SSW 6.9 mph - N/A   Clear
4:56 PM 63.9 °F - 30.0 °F 28% 30.13 in 9.0 mi NW 3.5 mph - N/A   Clear
5:56 PM 63.9 °F - 32.0 °F 30% 30.12 in 9.0 mi South 8.1 mph - N/A   Clear
6:56 PM 61.9 °F - 32.9 °F 34% 30.12 in 8.0 mi South 4.6 mph - N/A   Clear
7:56 PM 55.9 °F - 34.0 °F 44% 30.12 in 10.0 mi SSE 5.8 mph - N/A   Clear
8:56 PM 54.9 °F - 34.0 °F 45% 30.12 in 10.0 mi South 6.9 mph - N/A   Clear
9:56 PM 52.0 °F - 36.0 °F 54% 30.12 in 10.0 mi SSE 6.9 mph - N/A   Clear
10:56 PM 50.9 °F - 36.0 °F 57% 30.11 in 10.0 mi South 8.1 mph - N/A   Clear
11:56 PM 50.0 °F - 34.9 °F 56% 30.11 in 10.0 mi South 5.8 mph - N/A   Clear